Starlink 32845

operational
NORAD ID: 62815 Int'l Des: 2025-018 Owner: SPXS Country: US Constellation: starlink
LEOCIRCULAR

Starlink 32845について

説明を読み込み中...

リアルタイム位置

3D地球を読み込み中...

次回通過

高度履歴

Altitude vs Time

uPlot chart will show altitude changes over time

軌道要素

1 62815U 25018K 25303.98839177 .00038120 00000-0 12928-2 0 9991
2 62815 53.1580 191.8267 0001199 101.5315 258.5821 15.30193856 43319
Epoch: Oct 30, 2025 • Age: 11 hours

現在のステータス

高度 475.8 km
速度 7.63 km/s
衛星直下点 3.35°N, 8.47°W
打ち上げ日 Jan 24, 2025
運用期間 0.7 years
タイプ internet

技術仕様

分類 Payload
質量 730.00 kg
乾燥質量 700.00 kg
総質量 730.00 kg
長さ 0.30 m
直径 4.10 m
スパン 29.00 m
形状 Box + pan
製造者 SPXS
バスタイプ Starlink V2M
フェーズステータス In Orbit
所有者/国 SPXS/US

大規模コンステレーション

Loading constellations...